Location: Nelson
(41.2830°S, 173.2830°E)
Time: 18:49:52
(UTC+12:00)

Nadezhda 4 Rocket - Pass Details

Date: 14 May 2021
Orbit: 948 x 993 km, 82.9° (Epoch: 19 June)

Event Time Altitude Azimuth Distance (km) Brightness Sun altitude
Rises 17:45:17 0° 357° (N) 3,610 7.3 -5.4°
Reaches altitude 10° 17:47:45 10° 358° (N) 2,674 6.6 -5.8°
Maximum altitude 17:53:52 83° 84° (E) 976 4.0 -6.9°
Drops below altitude 10° 18:00:07 10° 171° (S) 2,727 6.1 -8.0°
Sets 18:02:39 0° 171° (S) 3,686 6.8 -8.5°
